Location: München
(48.1351°N, 11.5820°E)
Time: 05:27:02
(UTC+02:00)

ISS - Pass Details

Date: 19 May 2021
Orbit: 417 x 422 km, 51.6° (Epoch: 13 June)

Event Time Altitude Azimuth Distance (km) Brightness Sun altitude
Rises 00:29:30 0° 286° (WNW) 2,367 0.4 -21.5°
Reaches altitude 10° 00:31:39 10° 292° (WNW) 1,504 -0.6 -21.6°
Maximum altitude 00:34:56 47° 8° (N) 565 -2.8 -21.6°
Enters shadow 00:36:17 29° 65° (ENE) 803 -2.2 -21.7°
